Flag for Paraguay Weather past 2 weeks in Asuncion, Paraguay

Now
68 °F

Clear.


Feels Like: 68 °F
Forecast: 60 / 88 °F
Wind: 6 mph from Southeast

Location: Asuncion / Aeropuerto

Current Time: Apr 25, 2015 at 10:10:46 PM

Latest Report: Apr 25, 2015 at 9:00 PM


Visibility: 4 mi

Pressure: 30.01 "Hg

Humidity: 73%

Dew point: 59 °F

Location of AsuncionLocation

Historic Weather in Asuncion — Graph

°F

Asuncion temperature yesterday

Maximum temperature yesterday: 84 °F (at 2:00 PM)
Minimum temperature yesterday: 63 °F (at 4:00 AM)
Average temperature yesterday: 72 °F

Past Weeks' High & Low Weather Summary

 TemperatureHumidityPressure
High91 °F (Apr 11, 1:00 PM)100% (Apr 14, 8:30 AM)30.15 "Hg (Apr 14, 8:30 AM)
Low61 °F (Apr 23, 3:00 AM)40% (Apr 25, 2:00 PM)29.71 "Hg (Apr 20, 4:00 AM)
Average75 °F81%29.92 "Hg
* Reported Apr 10 9:00 PM — Apr 25 9:00 PM, Asuncion, Weather by CustomWeather, © 2015

Note: Actual official high and low records may vary slightly from our data, if they occured in-between our weather recording intervals... More about our weather records

Advertising

Asuncion weather history for previous 24 hours

 ConditionsComfort  
Time TempWeatherWind HumidityBarometerVisibility
9:00 PM
Sat, Apr 25
68 °FClear.6 mph73%30.01 "Hg4 mi
8:00 PM68 °FClear.6 mph73%30.01 "Hg4 mi
7:00 PM66 °FClear.5 mph83%30.01 "Hg4 mi
6:00 PM72 °FClear.3 mph69%29.98 "Hg10 mi
5:00 PM79 °FClear.3 mph51%29.98 "Hg10 mi
4:00 PM81 °FSunny.8 mph45%29.98 "Hg10 mi
3:00 PM84 °FSunny.3 mph43%30.01 "Hg10 mi
2:00 PM82 °FPassing clouds.6 mph40%30.01 "HgN/A
1:00 PM81 °FPassing clouds.6 mph51%30.04 "HgN/A
12:00 PM81 °FPassing clouds.6 mph48%30.09 "HgN/A
11:00 AM79 °FSunny.3 mph54%30.12 "Hg10 mi
10:00 AM75 °FPassing clouds.8 mph61%30.12 "HgN/A
9:30 AM73 °FPassing clouds.10 mph69%30.12 "HgN/A
9:00 AM72 °FPassing clouds.6 mph73%30.15 "HgN/A
8:30 AM68 °FSunny.5 mph83%30.15 "Hg10 mi
8:00 AM66 °FSunny.2 mph88%30.12 "Hg10 mi
7:30 AM66 °FSunny.No wind88%30.12 "Hg10 mi
7:00 AM66 °FSunny.No wind88%30.12 "Hg10 mi
6:00 AM66 °FSunny.5 mph83%30.12 "Hg10 mi
5:00 AM66 °FPassing clouds.6 mph83%30.09 "HgN/A
4:00 AM68 °FPassing clouds.6 mph83%30.09 "HgN/A
3:00 AM68 °FClear.2 mph83%30.09 "Hg10 mi
2:00 AM68 °FClear.3 mph83%30.09 "Hg10 mi
1:00 AM68 °FClear.7 mph83%30.12 "Hg10 mi
12:00 AM70 °FPassing clouds.7 mph78%30.12 "HgN/A
11:00 PM
Fri, Apr 24
70 °FPassing clouds.6 mph78%30.09 "HgN/A
10:00 PM70 °FClear.6 mph73%30.09 "Hg6 mi
Weather by CustomWeather, © 2015

See weather overviewHow to use our weather pages